Location: Quaker Farms
(41.4276°N, 73.1557°W)
Time: 21:12:17
(UTC+00:00)

S-56A Canister/Altair - Pass Details

Date: 21 June 2021
Orbit: 631 x 2501 km, 38.9° (Epoch: 30 July)

Event Time Altitude Azimuth Distance (km) Brightness Sun altitude
Rises 09:49:30 0° 251° (WSW) 2,949 9.9 4.1°
Reaches altitude 10° 09:51:49 10° 246° (WSW) 2,005 9.1 4.4°
Maximum altitude 09:56:07 56° 169° (SSE) 772 7.6 5.2°
Drops below altitude 10° 10:00:59 10° 91° (E) 2,257 11.3 6.0°
Sets 10:03:44 0° 87° (E) 3,365 12.3 6.4°
